Regional Weather Roundup
Issued by NWS Burlington, VT

Home | Current Version | Previous Version | Text Only | Print | Product List | Glossary On
Versions: 1 2 3 4 5 6 7 8 9 10 11 12 13 14 15 16 17 18 19 20 21 22 23 24 25 26 27 28 29 30 31 32 33 34 35 36 37 38 39 40 41 42 43 44 45 46 47 48 49 50
000
ASUS41 KBTV 290810
RWRBTV
VERMONT REGIONAL WEATHER ROUNDUP
NATIONAL WEATHER SERVICE BURLINGTON VT
400 AM EDT SAT AUG 29 2015

NOTE: "FAIR" INDICATES FEW OR NO CLOUDS BELOW 12,000 FEET WITH NO
SIGNIFICANT WEATHER AND/OR OBSTRUCTIONS TO VISIBILITY.

* THESE REPORTS ARE NOT UNDER NWS QUALITY CONTROL AND/OR DO NOT
  REPORT WEATHER SUCH AS PRECIPITATION AND FOG.

VTZ001>019-290900-
_____VERMONT_____


CITY           SKY/WX    TMP DP  RH WIND       PRES   REMARKS
BURLINGTON     CLEAR     57  53  86 CALM      30.16S
MONTPELIER     FOG       53  52  96 CALM      30.21F VSB 1/4
MORRISVILLE    FOG       53  51  93 CALM      30.19S VSB 1/4
ST. JOHNSBURY*   N/A     53  52  96 MISG      30.16F
LYNDONVILLE*   FOG       50  49  98 CALM      30.19F VSB 3/4
MIDDLEBURY*    FAIR      55  55 100 CALM      30.16S
RUTLAND*       CLEAR     52  46  82 SE8       30.21S
SPRINGFIELD    FOG       51  51 100 CALM      30.19S VSB 1/4
HIGHGATE*      FAIR      54  53  98 CALM      30.15S
NEWPORT*       FAIR      50  50  99 CALM      30.18S
BENNINGTON     FOG       49  48  97 CALM      30.20R VSB 3/4

_____LAKE CHAMPLAIN_____


CITY           SKY/WX    TMP DP  RH WIND       PRES   REMARKS

$$

NYZ007-026>031-035-052-083-290900-
_____NORTHERN NEW YORK_____


CITY           SKY/WX    TMP DP  RH WIND       PRES   REMARKS
PLATTSBURGH    CLEAR     53  51  93 CALM      30.16R
SARANAC LAKE   CLEAR     41  39  93 CALM      30.18F
MASSENA        CLEAR     52  50  93 CALM      30.16S
OGDENSBURG*    CLEAR     54  54 100 CALM      30.15S
POTSDAM*       CLEAR     55  55 100 SW3       30.16S
WATERTOWN      PTCLDY    52  50  93 N3        30.15S
FT DRUM        PTCLDY    55  53  92 SE8       30.15F
ALBANY         MOCLDY    56  52  86 CALM      30.19S
GLENS FALLS    CLEAR     53  50  89 CALM      30.18S

$$
NHZ002-005-011-290900-
_____NEW HAMPSHIRE_____


CITY           SKY/WX    TMP DP  RH WIND       PRES   REMARKS
LEBANON        FOG       55  53  93 CALM      30.17F VSB 1/4
KEENE          CLOUDY    54  48  82 S3        30.19S VSB 1/4
MT WASHINGTON  MOCLDY    50  23  34 SW14        N/A
PLYMOUTH       FOG       50  49  97 CALM      30.17S VSB 1/2
WHITEFIELD     MOCLDY    47  45  93 CALM      30.18F

$$

_____REGIONAL QUEBEC LOCATIONS_____


CITY           SKY/WX    TMP DP  RH WIND       PRES   REMARKS
MONTREAL       PTCLDY    59  55  88 SW7       30.14R
QUEBEC CITY    PTCLDY    57  55  94 SW9       30.09F
SHERBROOKE     CLEAR     50  50 100 E2        30.15S FOG

_____REGIONAL ONTARIO LOCATIONS_____


CITY           SKY/WX    TMP DP  RH WIND       PRES   REMARKS
OTTAWA         MOCLDY    55  54  94 SW5       30.15S

______KEY______
VSB  - VISIBILITY IN MILES
WCI  - WIND CHILL INDEX
HX   - HEAT INDEX
$$
NNNN



USA.gov is the U.S. government's official web portal to all federal, state and local government web resources and services.